Location: Campillo
(40.8621°N, 4.2488°W)
Time: 23:54:11
(UTC+00:00)

SJ-6B - Pass Details

Date: 25 September 2021
Orbit: 508 x 581 km, 97.6° (Epoch: 16 October)

Event Time Altitude Azimuth Distance (km) Brightness Sun altitude
Exits shadow 21:23:07 13° 275° (W) 1,708 5.9 -35.6°
Drops below altitude 10° 21:24:41 10° 298° (WNW) 1,895 6.3 -35.8°
Sets 21:27:56 0° 326° (NW) 2,791 7.3 -36.3°
